Location: Newark
(47.5833°N, 8.1500°E)
Time: 12:55:21
(UTC+00:00)

A-11 Canister half - All Passes

Search period start: 31 October 2020 00:00
Search period end: 10 November 2020 00:00
Orbit: 1526 x 1683 km, 47.3° (Epoch: 30 October)

Date Brightness Start Highest point End Pass type
(mag) Time Alt. Az. Time Alt. Az. Time Alt. Az.
31 Oct - 11:11:38 10° S 11:18:28 22° SE 11:25:09 10° E daylight
31 Oct - 13:12:40 10° SW 13:22:01 58° SSE 13:31:07 10° ENE daylight
31 Oct - 15:17:10 10° W 15:26:44 87° S 15:36:06 10° E daylight
31 Oct - 17:22:21 10° W 17:31:45 78° SSW 17:41:03 10° ESE visible
31 Oct - 19:27:33 10° WNW 19:35:56 39° SW 19:44:19 10° SSE visible
31 Oct - 21:37:59 10° WSW 21:38:45 10° WSW 21:39:31 10° SW visible
01 Nov - 10:50:18 10° S 10:56:54 21° SE 11:03:22 10° E daylight
01 Nov - 12:51:04 10° SW 13:00:24 56° SSE 13:09:28 10° ENE daylight
01 Nov - 14:55:29 10° W 15:05:05 87° S 15:14:27 10° E daylight
01 Nov - 17:00:42 10° W 17:10:07 79° SSW 17:19:25 10° ESE visible
01 Nov - 19:05:53 10° WNW 19:14:21 41° SW 19:22:49 10° SSE visible
01 Nov - 21:14:54 10° WSW 21:17:14 11° WSW 21:19:34 10° SW visible
02 Nov - 10:29:00 10° S 10:35:21 20° SE 10:41:34 10° E daylight
02 Nov - 12:29:28 10° SW 12:38:47 54° SSE 12:47:50 10° ENE daylight
02 Nov - 14:33:49 10° WSW 14:43:26 86° S 14:52:49 10° E daylight
02 Nov - 16:39:01 10° W 16:48:29 80° SSW 16:57:48 10° ESE visible
02 Nov - 18:44:12 10° WNW 18:52:47 43° SW 19:01:19 10° SSE visible
02 Nov - 20:52:32 10° WSW 20:55:42 12° WSW 20:58:54 10° SW visible
03 Nov - 10:07:42 10° SSE 10:13:47 19° SE 10:19:45 10° E daylight
03 Nov - 12:07:53 10° SW 12:17:10 52° SSE 12:26:12 10° ENE daylight
03 Nov - 14:12:08 10° WSW 14:21:47 85° S 14:31:10 10° E daylight
03 Nov - 16:17:22 10° W 16:26:51 82° SSW 16:36:09 10° ESE visible
03 Nov - 18:22:31 10° WNW 18:31:11 44° SW 18:39:48 10° SSE visible
03 Nov - 20:30:21 10° W 20:34:11 13° SW 20:38:01 10° SSW visible
04 Nov - 09:46:27 10° SSE 09:52:14 17° SE 09:57:54 10° E daylight
04 Nov - 11:46:19 10° SW 11:55:34 51° SE 12:04:33 10° ENE daylight
04 Nov - 13:50:28 10° WSW 14:00:08 85° S 14:09:32 10° E daylight
04 Nov - 15:55:42 10° W 16:05:13 83° SSW 16:14:32 10° ESE daylight
04 Nov - 18:00:51 10° WNW 18:09:36 46° SW 18:18:17 10° SSE visible
04 Nov - 20:08:18 10° W 20:12:39 14° SW 20:17:01 10° SSW visible
05 Nov - 09:25:15 10° SSE 09:30:40 16° SE 09:36:01 10° E daylight
05 Nov - 11:24:44 10° SW 11:33:57 49° SE 11:42:54 10° ENE daylight
05 Nov - 13:28:48 10° WSW 13:38:28 84° S 13:47:54 10° E daylight
05 Nov - 15:34:01 10° W 15:43:34 84° SSW 15:52:54 10° ESE daylight
05 Nov - 17:39:10 10° WNW 17:48:01 48° SW 17:56:45 10° SE visible
05 Nov - 19:46:19 10° W 19:51:07 15° SW 19:55:56 10° SSW visible
06 Nov - 09:04:05 10° SSE 09:09:07 15° SE 09:14:05 10° E daylight
06 Nov - 11:03:09 10° SW 11:12:20 47° SE 11:21:15 10° ENE daylight
06 Nov - 13:07:07 10° WSW 13:16:50 83° SSE 13:26:15 10° E daylight
06 Nov - 15:12:21 10° W 15:21:56 85° S 15:31:16 10° ESE daylight
06 Nov - 17:17:30 10° WNW 17:26:25 50° SW 17:35:13 10° SE visible
06 Nov - 19:24:23 10° W 19:29:35 16° SW 19:34:48 10° SSW visible
07 Nov - 08:42:58 10° SSE 08:47:34 14° SE 08:52:07 10° E daylight
07 Nov - 10:41:36 10° SSW 10:50:44 46° SE 10:59:36 10° ENE daylight
07 Nov - 12:45:27 10° WSW 12:55:11 82° SSE 13:04:37 10° E daylight
07 Nov - 14:50:40 10° W 15:00:17 85° S 15:09:38 10° ESE daylight
07 Nov - 16:55:50 10° WNW 17:04:50 52° SSW 17:13:40 10° SE visible
07 Nov - 19:02:30 10° W 19:08:04 18° SW 19:13:36 10° SSW visible
08 Nov - 08:21:56 10° SSE 08:26:01 13° ESE 08:30:04 10° E daylight
08 Nov - 10:20:02 10° SSW 10:29:07 44° SE 10:37:57 10° ENE daylight
08 Nov - 12:23:47 10° WSW 12:33:32 81° SSE 12:42:59 10° E daylight
08 Nov - 14:28:59 10° W 14:38:38 86° S 14:48:00 10° ESE daylight
08 Nov - 16:34:09 10° WNW 16:43:14 53° SSW 16:52:08 10° SE visible
08 Nov - 18:40:38 10° W 18:46:31 19° SW 18:52:23 10° SSW visible
09 Nov - 08:01:00 10° SE 08:04:29 12° ESE 08:07:55 10° ESE daylight
09 Nov - 09:58:29 10° SSW 10:07:31 42° SE 10:16:17 10° ENE daylight
09 Nov - 12:02:06 10° WSW 12:11:53 79° SSE 12:21:20 10° E daylight
09 Nov - 14:07:18 10° W 14:16:59 87° S 14:26:22 10° E daylight
09 Nov - 16:12:29 10° WNW 16:21:37 55° SSW 16:30:35 10° SE visible
09 Nov - 18:18:47 10° W 18:24:58 20° SW 18:31:08 10° S visible
